Poplar Bluff, MO

6:50 AM CDT on June 26, 2017 (GMT -0500)
Poplar Bluff Municipal

Weather History for KPOF - May, 2014

Change the Weather History Date:

Tuesday, May 13, 2014

  Actual Average Record
Temperature  
Mean Temperature 64 °F -  
Max Temperature 71 °F 76 °F 90 °F (1934)
Min Temperature 55 °F 55 °F 39 °F (1960)
Growing Degree Days 14 (Base 50)    
Moisture  
Dew Point 59 °F    
Average Humidity 82    
Maximum Humidity 88    
Minimum Humidity 73    
Precipitation  
Precipitation 0.60 in - - ()
Sea Level Pressure  
Sea Level Pressure 30.04 in    
Wind  
Wind Speed 7 mph (NW)    
Max Wind Speed 14 mph    
Max Gust Speed 22 mph    
Visibility 9 miles    
Events Rain , Thunderstorm    
Averages and records for this station are not official NWS values.
T = Trace of Precipitation, MM = Missing Value Source: NWS Daily Summary

Daily Weather History Graph

Daily Weather History Graph

Search for Another Location

Airport or City:

Trip Planner

Search our weather history database for the weather conditions in past years. The results will help you decide how hot, cold, wet, or windy it might be!

Date:

Astronomy

May. 13, 2014 Rise Set
Actual Time 5:55 AM CDT 8:00 PM CDT
Civil Twilight 5:26 AM CDT 8:29 PM CDT
Nautical Twilight 4:51 AM CDT 9:04 PM CDT
Astronomical Twilight 4:13 AM CDT 9:42 PM CDT
Moon 7:03 PM CDT (5/13) 5:09 AM CDT (5/13)
Length of Visible Light 15h 02m
Length of Day
14h 04m
Waxing Gibbous, 99% of the Moon is Illuminated
May 13
Waxing Gibbous
May 14
Full
May 21
Last Quarter
May 28
New
Jun 5
First Quarter

Hourly Weather History & Observations

Time (CDT) Temp. Dew Point Humidity Pressure Visibility Wind Dir Wind Speed Gust Speed Precip Events Conditions
12:30 AM 72.0 °F 63.0 °F 73% 29.95 in 10.0 mi Variable 6.9 mph 17.3 mph 0.00 in Thunderstorm Overcast
1:08 AM 66.9 °F 62.1 °F 84% 29.95 in 3.0 mi NNW 9.2 mph 17.3 mph 0.12 in Rain Heavy Rain
1:13 AM 66.9 °F 62.1 °F 84% 29.95 in 3.0 mi NNW 8.1 mph - 0.14 in Rain , Thunderstorm Light Rain
1:37 AM 66.9 °F 61.0 °F 81% 29.96 in 3.0 mi NNW 4.6 mph - 0.18 in Rain , Thunderstorm Light Thunderstorms and Rain
1:53 AM 66.9 °F 61.0 °F 81% 29.94 in 10.0 mi ENE 3.5 mph - 0.24 in Rain Light Rain
2:41 AM 66.9 °F 62.1 °F 84% 29.93 in 8.0 mi NE 4.6 mph - 0.04 in Rain , Thunderstorm Light Rain
2:53 AM 66.9 °F 62.1 °F 84% 29.94 in 10.0 mi SE 5.8 mph - 0.04 in Rain Light Rain
3:53 AM 66.0 °F 62.1 °F 87% 29.93 in 10.0 mi Calm Calm - 0.02 in   Mostly Cloudy
4:08 AM 66.9 °F 62.1 °F 84% 29.94 in 10.0 mi SE 3.5 mph - 0.00 in Rain Light Rain
4:51 AM 66.2 °F 62.6 °F 88% 29.94 in 10.0 mi Calm Calm - 0.00 in   Mostly Cloudy
4:53 AM 66.0 °F 62.1 °F 87% 29.93 in 10.0 mi Calm Calm - 0.00 in   Mostly Cloudy
5:22 AM 66.0 °F 62.1 °F 87% 29.94 in 10.0 mi Calm Calm - N/A   Mostly Cloudy
5:53 AM 66.9 °F 62.1 °F 84% 29.94 in 10.0 mi SW 3.5 mph - 0.00 in   Overcast
6:30 AM 66.9 °F 62.1 °F 84% 29.98 in 8.0 mi Calm Calm - 0.00 in Rain Light Rain
6:53 AM 66.9 °F 63.0 °F 87% 30.00 in 8.0 mi SW 5.8 mph - 0.01 in Rain Light Rain
8:14 AM 66.9 °F 63.0 °F 87% 30.03 in 6.0 mi West 5.8 mph - 0.03 in Rain Light Rain
8:53 AM 66.9 °F 63.0 °F 87% 30.01 in 6.0 mi West 4.6 mph - 0.08 in Rain Light Rain
9:09 AM 68.0 °F 63.0 °F 84% 30.04 in 6.0 mi SW 5.8 mph - 0.01 in Rain Light Rain
9:50 AM 69.8 °F 64.4 °F 83% 30.04 in 10.0 mi SW 5.8 mph - 0.02 in Rain Light Rain
9:53 AM 69.1 °F 64.0 °F 84% 30.03 in 10.0 mi SW 5.8 mph - 0.03 in Rain Light Rain
11:07 AM 69.1 °F 63.0 °F 81% 30.06 in 10.0 mi SSW 10.4 mph - 0.00 in Rain Light Rain
11:15 AM 69.8 °F 64.4 °F 83% 30.05 in 10.0 mi SW 6.9 mph - N/A Rain Light Rain
11:32 AM 70.0 °F 64.0 °F 81% 30.03 in 10.0 mi Calm Calm - 0.01 in Rain Light Rain
11:44 AM 70.0 °F 64.0 °F 81% 30.03 in 10.0 mi South 4.6 mph - 0.01 in   Overcast
11:53 AM 70.0 °F 63.0 °F 78% 30.01 in 10.0 mi SE 3.5 mph - 0.01 in   Mostly Cloudy
12:00 PM 69.8 °F 62.6 °F 78% 30.03 in 10.0 mi Calm Calm - N/A   Mostly Cloudy
12:16 PM 71.1 °F 63.0 °F 75% 30.04 in 10.0 mi SW 5.8 mph - N/A   Mostly Cloudy
12:53 PM 66.0 °F 61.0 °F 84% 30.05 in 1.5 mi WNW 11.5 mph - 0.04 in Rain Heavy Rain
1:00 PM 66.0 °F 61.0 °F 84% 30.06 in 2.0 mi NW 12.7 mph - 0.05 in Rain Light Rain
1:08 PM 64.9 °F 60.1 °F 84% 30.06 in 10.0 mi NW 11.5 mph - 0.05 in Rain Light Rain
1:25 PM 64.9 °F 60.1 °F 84% 30.05 in 8.0 mi NW 10.4 mph - 0.05 in Rain Light Rain
1:53 PM 64.9 °F 60.1 °F 84% 30.05 in 10.0 mi NW 11.5 mph - 0.05 in   Overcast
2:39 PM 64.9 °F 59.0 °F 81% 30.07 in 10.0 mi NW 10.4 mph - N/A   Overcast
2:53 PM 64.9 °F 59.0 °F 81% 30.07 in 10.0 mi NW 12.7 mph - N/A   Overcast
3:09 PM 64.9 °F 57.9 °F 78% 30.07 in 10.0 mi NW 11.5 mph - N/A   Overcast
3:21 PM 64.9 °F 57.9 °F 78% 30.07 in 10.0 mi NW 12.7 mph - 0.00 in   Overcast
3:53 PM 64.0 °F 57.9 °F 80% 30.06 in 10.0 mi NNW 12.7 mph - 0.00 in Rain Light Rain
4:03 PM 64.0 °F 57.0 °F 78% 30.06 in 10.0 mi NNW 11.5 mph 20.7 mph 0.00 in Rain Light Rain
4:23 PM 62.6 °F 57.2 °F 82% 30.07 in 10.0 mi NNW 13.8 mph - N/A   Overcast
4:53 PM 63.0 °F 55.9 °F 78% 30.07 in 10.0 mi NNW 10.4 mph - 0.00 in   Overcast
5:45 PM 61.0 °F 55.0 °F 81% 30.08 in 10.0 mi NW 12.7 mph 21.9 mph 0.00 in Rain Light Rain
5:53 PM 60.1 °F 54.0 °F 80% 30.08 in 10.0 mi NNW 12.7 mph - 0.00 in Rain Light Rain
6:53 PM 59.0 °F 53.1 °F 81% 30.09 in 10.0 mi North 11.5 mph - 0.00 in   Overcast
7:20 PM 59.0 °F 53.1 °F 81% 30.10 in 10.0 mi NNW 9.2 mph - 0.00 in   Overcast
7:51 PM 57.2 °F 53.6 °F 88% 30.12 in 10.0 mi NNW 9.2 mph - 0.00 in   Overcast
7:53 PM 57.9 °F 53.1 °F 84% 30.12 in 10.0 mi NNW 10.4 mph - 0.00 in   Overcast
8:53 PM 57.9 °F 52.0 °F 81% 30.13 in 10.0 mi North 10.4 mph - 0.00 in Rain Light Rain
9:13 PM 57.0 °F 51.1 °F 81% 30.14 in 10.0 mi North 8.1 mph - 0.00 in   Overcast
9:53 PM 57.0 °F 51.1 °F 81% 30.16 in 10.0 mi NNW 9.2 mph - 0.00 in   Overcast
10:53 PM 57.0 °F 51.1 °F 81% 30.17 in 10.0 mi North 8.1 mph - 0.00 in Rain Light Rain
11:08 PM 57.0 °F 51.1 °F 81% 30.17 in 10.0 mi North 8.1 mph - 0.00 in Rain Light Rain
11:53 PM 55.9 °F 51.1 °F 84% 30.16 in 10.0 mi North 9.2 mph - 0.08 in Rain Light Rain